Date String (YYYY-MM-DD hh:mm:ss) UTC,Instrument flags,Ambient pressure (hPa),Sample flow (lpm),Bypass flow (lpm),Sample temperature (°C),Ambient temperature (°C),ASC tube jacket temperature (°C),LED temperature (°C),Box temperature (°C),Sample RH (%),Span deviation,Mass concentration (μg/m³),Mass concentration (μg/m³),Mass concentration (μg/m³)
DateTimeUTC,F1_M11,P_M11,Q1_M11,Q2_M11,T1_M11,T2_M11,T3_M11,T4_M11,T5_M11,U1_M11,ZSPAN_M11,X2_M11,X0_M11,X1_M11
2022-12-09 10:00:00,,0826.2,5.00,0.00,22.2,21.0,00.0,31.0,24.0,06.1,0000.0,0001.41,0003.21,0000.91
2022-12-09 10:01:00,,0826.2,4.98,0.00,22.2,20.8,00.0,31.0,24.0,06.0,0000.0,0001.40,0003.28,0000.91
2022-12-09 10:02:00,,0826.2,5.00,0.00,22.2,20.7,00.0,31.0,23.9,05.9,0000.0,0001.41,0005.61,0000.92
2022-12-09 10:03:00,,0826.2,5.02,0.00,22.1,20.6,00.0,31.0,23.9,06.0,0000.0,0001.41,0005.09,0000.92
2022-12-09 10:04:00,,0826.2,4.99,0.00,22.1,20.5,00.0,31.0,23.8,06.0,0000.0,0001.39,0005.14,0000.92
2022-12-09 10:05:00,,0826.2,4.98,0.00,22.1,20.4,00.0,31.0,23.8,06.0,0000.0,0001.35,0005.10,0000.93
2022-12-09 10:06:00,,0826.2,5.03,0.00,22.0,20.4,00.0,31.0,23.8,06.0,0000.0,0001.32,0004.98,0000.92
2022-12-09 10:07:00,,0826.2,5.01,0.00,22.0,20.4,00.0,31.0,23.8,06.0,0000.0,0001.28,0004.87,0000.91
2022-12-09 10:08:00,,0826.3,4.98,0.00,22.0,20.3,00.0,30.9,23.8,06.0,0000.0,0001.30,0004.91,0000.92
2022-12-09 10:09:00,,0826.4,5.00,0.00,22.0,20.9,00.0,30.9,23.9,06.0,0000.0,0001.25,0004.94,0000.92
2022-12-09 10:10:00,,0826.4,5.01,0.00,22.1,21.8,00.0,30.9,24.1,06.0,0000.0,0001.23,0004.96,0000.91
2022-12-09 10:11:00,,0826.4,5.01,0.00,22.2,22.1,00.0,30.9,24.1,05.9,0000.0,0001.21,0004.93,0000.91
2022-12-09 10:12:00,,0826.3,4.98,0.00,22.2,21.7,00.0,30.9,24.1,05.9,0000.0,0001.21,0004.94,0000.90
2022-12-09 10:13:00,,0826.2,4.99,0.00,22.2,21.4,00.0,31.0,24.0,05.9,0000.0,0001.19,0002.57,0000.89
2022-12-09 10:14:00,,0826.1,5.00,0.00,22.2,21.2,00.0,31.0,24.0,05.9,0000.0,0001.18,0002.55,0000.90
2022-12-09 10:15:00,,0826.2,5.01,0.00,22.2,21.0,00.0,31.0,23.9,05.9,0000.0,0001.19,0002.48,0000.90
2022-12-09 10:16:00,,0826.1,5.01,0.00,22.1,20.9,00.0,31.0,23.9,05.9,0000.0,0001.21,0002.37,0000.89
2022-12-09 10:17:00,,0826.1,4.98,0.00,22.1,20.8,00.0,31.0,23.9,05.8,0000.0,0001.20,0002.34,0000.89
2022-12-09 10:18:00,,0826.1,4.99,0.00,22.1,20.7,00.0,31.0,23.9,05.8,0000.0,0001.18,0002.30,0000.87
2022-12-09 10:19:00,,0826.0,5.02,0.00,22.1,20.6,00.0,31.0,23.9,05.8,0000.0,0001.13,0002.19,0000.85
2022-12-09 10:20:00,,0826.0,5.00,0.00,22.1,20.6,00.0,31.0,23.8,05.8,0000.0,0001.10,0002.05,0000.84
2022-12-09 10:21:00,,0825.9,4.98,0.00,22.0,20.5,00.0,30.9,23.8,05.9,0000.0,0001.09,0001.97,0000.84
2022-12-09 10:22:00,,0825.9,5.00,0.00,22.0,20.5,00.0,30.9,23.8,05.9,0000.0,0001.11,0002.29,0000.83
2022-12-09 10:23:00,,0825.9,5.03,0.00,22.0,20.5,00.0,30.9,23.8,05.9,0000.0,0001.12,0002.35,0000.84
2022-12-09 10:24:00,,0826.0,4.99,0.00,22.0,20.5,00.0,30.9,23.8,05.9,0000.0,0001.12,0002.05,0000.84
2022-12-09 10:25:00,,0825.9,4.98,0.00,22.0,20.5,00.0,30.9,23.8,05.8,0000.0,0001.10,0001.99,0000.84
2022-12-09 10:26:00,,0826.0,5.03,0.00,22.0,20.5,00.0,30.9,23.8,05.8,0000.0,0001.07,0002.00,0000.83
2022-12-09 10:27:00,,0825.9,4.98,0.00,22.0,20.9,00.0,30.8,23.9,05.8,0000.0,0001.06,0002.09,0000.82
2022-12-09 10:28:00,,0825.9,4.98,0.00,22.1,21.8,00.0,30.8,24.1,05.8,0000.0,0001.05,0002.09,0000.82
2022-12-09 10:29:00,,0825.8,5.02,0.00,22.2,22.1,00.0,30.9,24.2,05.8,0000.0,0001.06,0002.11,0000.82
2022-12-09 10:30:00,,0825.9,4.99,0.00,22.2,21.9,00.0,30.9,24.2,05.8,0000.0,0001.05,0002.09,0000.83
2022-12-09 10:31:00,,0825.8,4.98,0.00,22.2,21.6,00.0,31.0,24.1,05.8,0000.0,0001.06,0002.13,0000.83
2022-12-09 10:32:00,,0825.8,4.99,0.00,22.2,21.4,00.0,31.0,24.1,05.8,0000.0,0001.07,0002.15,0000.83
2022-12-09 10:33:00,,0825.9,5.01,0.00,22.2,21.2,00.0,31.0,24.0,05.8,0000.0,0001.03,0001.84,0000.84
2022-12-09 10:34:00,,0825.9,5.02,0.00,22.2,21.0,00.0,31.0,24.0,05.8,0000.0,0001.04,0002.87,0000.84
2022-12-09 10:35:00,,0825.8,4.99,0.00,22.2,21.0,00.0,31.0,23.9,05.8,0000.0,0001.05,0002.97,0000.85
2022-12-09 10:36:00,,0825.7,4.98,0.00,22.1,20.8,00.0,31.0,23.9,05.8,0000.0,0001.09,0003.06,0000.85
2022-12-09 10:37:00,,0825.6,5.00,0.00,22.1,20.8,00.0,31.0,23.9,05.8,0000.0,0001.10,0003.06,0000.86
2022-12-09 10:38:00,,0825.6,5.02,0.00,22.1,20.7,00.0,30.9,23.9,05.8,0000.0,0001.08,0002.93,0000.86
2022-12-09 10:39:00,,0825.6,4.98,0.00,22.1,20.7,00.0,30.9,23.9,05.8,0000.0,0001.08,0002.97,0000.85
2022-12-09 10:40:00,,0825.7,4.99,0.00,22.1,20.7,00.0,30.9,23.9,05.8,0000.0,0001.08,0002.97,0000.86
2022-12-09 10:41:00,,0825.7,5.03,0.00,22.1,20.6,00.0,30.9,23.9,05.8,0000.0,0001.12,0003.02,0000.86
2022-12-09 10:42:00,,0825.7,4.99,0.00,22.0,20.6,00.0,30.9,23.8,05.8,0000.0,0001.16,0003.19,0000.87
2022-12-09 10:43:00,,0825.7,4.99,0.00,22.0,20.5,00.0,30.9,23.8,05.8,0000.0,0001.14,0003.19,0000.86
2022-12-09 10:44:00,,0825.7,5.00,0.00,22.0,20.5,00.0,30.9,23.8,05.8,0000.0,0001.13,0003.11,0000.85
2022-12-09 10:45:00,,0825.7,5.02,0.00,22.0,20.8,00.0,30.9,23.8,05.8,0000.0,0001.11,0002.26,0000.84
2022-12-09 10:46:00,,0825.7,5.02,0.00,22.1,21.7,00.0,30.9,24.0,05.8,0000.0,0001.13,0003.20,0000.83
2022-12-09 10:47:00,,0825.7,5.00,0.00,22.2,22.2,00.0,30.9,24.2,05.8,0000.0,0001.12,0003.26,0000.83
2022-12-09 10:48:00,,0825.7,4.98,0.00,22.2,21.9,00.0,30.9,24.2,05.8,0000.0,0001.12,0003.26,0000.83
2022-12-09 10:49:00,,0825.7,4.99,0.00,22.2,21.6,00.0,31.0,24.1,05.8,0000.0,0001.12,0003.25,0000.84
2022-12-09 10:50:00,,0825.7,5.00,0.00,22.2,21.4,00.0,31.0,24.1,05.8,0000.0,0001.14,0003.24,0000.84
2022-12-09 10:51:00,,0825.7,5.02,0.00,22.2,21.2,00.0,31.0,24.1,05.7,0000.0,0001.13,0003.21,0000.85
2022-12-09 10:52:00,,0825.7,5.00,0.00,22.2,21.1,00.0,31.0,24.0,05.8,0000.0,0001.10,0003.15,0000.85
2022-12-09 10:53:00,,0825.6,4.98,0.00,22.2,21.0,00.0,31.0,24.0,05.7,0000.0,0001.05,0002.97,0000.83
2022-12-09 10:54:00,,0825.5,4.99,0.00,22.2,20.9,00.0,31.0,24.0,05.8,0000.0,0001.03,0002.86,0000.83
2022-12-09 10:55:00,,0825.6,5.01,0.00,22.2,20.9,00.0,31.0,24.0,05.8,0000.0,0001.04,0002.88,0000.83
2022-12-09 10:56:00,,0825.6,5.01,0.00,22.2,20.8,00.0,31.0,23.9,05.8,0000.0,0001.10,0002.93,0000.84
2022-12-09 10:57:00,,0825.6,5.00,0.00,22.1,20.7,00.0,31.0,23.9,05.7,0000.0,0001.09,0001.80,0000.85
2022-12-09 10:58:00,,0825.6,4.99,0.00,22.1,20.6,00.0,31.0,23.9,05.7,0000.0,0001.06,0001.70,0000.85
2022-12-09 10:59:00,,0825.7,4.99,0.00,22.1,20.5,00.0,31.0,23.8,05.7,0000.0,0001.09,0001.76,0000.86
